STARLINK-2402, 47819

Orbit data source: Space-Track

STARLINK-2402, 47819 is a payload satellite owned by SpaceX/Seattle (US) in LEO that was launched on Thu, 11 Mar 2021 UTC via an FALCON 9 launch vehicle from the Air Force Eastern Test Range (AFETR). Payload-class satellites include a variety of spacecraft equipped with specific instruments for various scientific and technological missions. These include communications satellites like Starlink; space stations such as the ISS; scientific satellites like the Hubble; Earth observation satellites from companies like Planet Labs, Umbra, and HawkEye 360; GPS; miniature CubeSats for education and research; and military/defense satellites.

Loading next visibility...
Identifier
47819, 2021-018AJ
Orbit
LEO
Country
Flag of USUS
Related business
Manufacturer
SpaceX/Seattle
Mission
Operational Commercial Communications
Bus & Motor
STARLINK, Unknown motor
Mass
260 kg wet, ~248 kg dry
Launch date (UTC)
2021-03-11 (5 years ago)
Launch vehicle
FALCON 9
Launch site
Air Force Eastern Test Range (AFETR)
Object type
Payload
Rocket body
Debris
Shape & HBR
Box + 1 Pan, 10.1 m
Radar Cross Section
13.562 m², Large (>1 m²)

Expand to show TLE details & history
Last TLE update: 19 hours ago

TLE from 19 hours ago
0 STARLINK-2402
1 47819U 21018AJ  25291.96443968  .00003063  00000-0  22443-3 0  9999
2 47819  53.0545 167.8393 0001315  89.6411 270.4728 15.06404880255298
Epoch: 2025-10-18T23:08Z
TLE epoch observation values (Epoch: 2025-10-18T23:08:47.588Z)
Latitude
-0.00007°
Longitude
152.95306°
Altitude
548.068 km
Speed
7.589 km/s
True Right ascension
11h 11m 21s
True Declination
0° 00' 00"
Sunlit
Object was in daylight at epoch
Visualization orbit readout
Latitude
Unknown
Longitude
Unknown
Altitude
Unknown
Speed
Unknown
Apparent Right ascension
Unknown
Apparent Declination
Unknown
Sunlit
N/A
Visualization observer readout
Local Sidereal Time
13:31:05
Azimuth
Unknown
Elevation
Unknown
Doppler factor
Unknown
Orbital elements
Apogee altitude
548.378 km
Perigee altitude
546.557 km
Semi-major axis
6,925.604 km
Eccentricity
0.00013
Inclination
53.0545°
RAAN
167.8393°
Arg. of periapsis
89.6411°
True anomaly
270.45773°
Mean anomaly
270.4728°
Eccentric anomaly
270.46527°
Mean motion
3.76579 °/min
Orbital period
95.6 mins
BSTAR
0.00022443
Loading maneuver chart data...
Computing Atmospheric mass density...

Documentation

Showing up to 5 results
|